Date String (YYYY-MM-DD hh:mm:ss) UTC,Instrument flags,absolute air pressure of the measurement (hPa),sample flow rate (lpm),inlet stack bypass flow (lpm),air temperature of the measurement (°C),ambient temperature measured by the external sensor (°C),aerosol sample conditioner tube jacket temperature (°C),OPC LED temperature (°C),internal box temperature (°C),relative humidity of the measurement (%),span deviation,mass concentration of particles derived from Lorenz-Mie calculation of OPC scattering (μg/m³),mass concentration of particles derived from Lorenz-Mie calculation of OPC scattering (μg/m³),mass concentration of particles derived from Lorenz-Mie calculation of OPC scattering (μg/m³)
DateTimeUTC,F1_M11,P_M11,Q1_M11,Q2_M11,T1_M11,T2_M11,T3_M11,T4_M11,T5_M11,U1_M11,ZSPAN_M11,X0_M11,X2_M11,X1_M11
2024-05-02 07:00:00,SystemResetWarning,0824.8,5.00,000.00,024.8,024.1,000.0,033.4,026.5,020.8,0000.0,0008.73,0002.83,0001.65
2024-05-02 07:01:00,SystemResetWarning,0824.8,5.00,000.00,024.8,024.1,000.0,033.4,026.6,020.8,0000.0,0008.85,0002.90,0001.67
2024-05-02 07:02:00,SystemResetWarning,0824.8,5.01,000.00,024.8,024.1,000.0,033.4,026.6,020.8,0000.0,0009.02,0002.92,0001.67
2024-05-02 07:03:00,SystemResetWarning,0824.8,4.99,000.00,024.8,024.1,000.0,033.4,026.6,020.8,0000.0,0009.35,0002.91,0001.66
2024-05-02 07:04:00,SystemResetWarning,0824.8,4.99,000.00,024.8,024.1,000.0,033.4,026.6,020.8,0000.0,0009.43,0002.85,0001.65
2024-05-02 07:05:00,SystemResetWarning,0824.8,5.00,000.00,024.8,024.1,000.0,033.3,026.5,020.7,0000.0,0009.62,0002.87,0001.65
2024-05-02 07:06:00,SystemResetWarning,0824.8,5.01,000.00,024.8,024.1,000.0,033.3,026.5,020.7,0000.0,0009.03,0002.88,0001.64
2024-05-02 07:07:00,SystemResetWarning,0824.9,5.00,000.00,024.8,024.1,000.0,033.3,026.6,020.7,0000.0,0009.00,0002.94,0001.66
2024-05-02 07:08:00,SystemResetWarning,0824.9,4.99,000.00,024.8,024.1,000.0,033.3,026.6,020.8,0000.0,0007.87,0002.93,0001.66
2024-05-02 07:09:00,SystemResetWarning,0824.9,5.00,000.00,024.8,024.1,000.0,033.3,026.6,020.8,0000.0,0007.60,0002.89,0001.65
2024-05-02 07:10:00,SystemResetWarning,0824.9,5.00,000.00,024.8,024.1,000.0,033.3,026.6,020.8,0000.0,0008.65,0002.95,0001.65
2024-05-02 07:11:00,SystemResetWarning,0824.9,5.00,000.00,024.8,024.1,000.0,033.3,026.6,020.7,0000.0,0008.64,0002.94,0001.63
2024-05-02 07:12:00,SystemResetWarning,0824.9,5.01,000.00,024.8,024.1,000.0,033.3,026.6,020.7,0000.0,0009.02,0002.95,0001.62
2024-05-02 07:13:00,SystemResetWarning,0824.9,4.98,000.00,024.8,024.1,000.0,033.3,026.6,020.6,0000.0,0009.41,0002.99,0001.62
2024-05-02 07:14:00,SystemResetWarning,0824.9,5.01,000.00,024.8,024.1,000.0,033.3,026.6,020.4,0000.0,0009.29,0003.02,0001.63
2024-05-02 07:15:00,SystemResetWarning,0824.9,5.01,000.00,024.8,024.1,000.0,033.3,026.6,020.3,0000.0,0009.18,0003.02,0001.62
2024-05-02 07:16:00,SystemResetWarning,0825.0,4.99,000.00,024.8,024.1,000.0,033.3,026.6,020.3,0000.0,0009.02,0002.97,0001.62
2024-05-02 07:17:00,SystemResetWarning,0824.9,4.99,000.00,024.7,024.0,000.0,033.3,026.5,020.2,0000.0,0008.49,0002.90,0001.60
2024-05-02 07:18:00,SystemResetWarning,0824.9,5.00,000.00,024.7,024.0,000.0,033.3,026.4,020.2,0000.0,0008.37,0002.85,0001.58
2024-05-02 07:19:00,SystemResetWarning,0824.9,5.01,000.00,024.7,024.0,000.0,033.3,026.4,020.3,0000.0,0008.34,0002.82,0001.56
2024-05-02 07:20:00,SystemResetWarning,0824.9,5.01,000.00,024.7,023.9,000.0,033.2,026.4,020.4,0000.0,0008.41,0002.81,0001.55
2024-05-02 07:21:00,SystemResetWarning,0824.8,4.99,000.00,024.6,023.9,000.0,033.2,026.4,020.3,0000.0,0007.89,0002.81,0001.54
2024-05-02 07:22:00,SystemResetWarning,0824.8,4.99,000.00,024.6,023.9,000.0,033.2,026.3,020.3,0000.0,0007.54,0002.77,0001.54
2024-05-02 07:23:00,SystemResetWarning,0824.8,5.02,000.00,024.6,023.8,000.0,033.2,026.4,020.3,0000.0,0007.01,0002.73,0001.52
2024-05-02 07:24:00,SystemResetWarning,0824.9,5.00,000.00,024.6,023.8,000.0,033.2,026.3,020.4,0000.0,0007.02,0002.68,0001.50
2024-05-02 07:25:00,SystemResetWarning,0824.9,4.99,000.00,024.6,023.8,000.0,033.2,026.3,020.4,0000.0,0006.46,0002.57,0001.48
2024-05-02 07:26:00,SystemResetWarning,0824.9,5.00,000.00,024.6,023.8,000.0,033.2,026.3,020.5,0000.0,0006.16,0002.50,0001.48
2024-05-02 07:27:00,SystemResetWarning,0824.9,5.01,000.00,024.5,023.8,000.0,033.1,026.3,020.5,0000.0,0006.19,0002.53,0001.46
2024-05-02 07:28:00,SystemResetWarning,0824.9,5.01,000.00,024.5,023.8,000.0,033.1,026.3,020.6,0000.0,0006.47,0002.54,0001.46
2024-05-02 07:29:00,SystemResetWarning,0824.8,5.01,000.00,024.5,023.7,000.0,033.1,026.2,020.6,0000.0,0006.87,0002.51,0001.47
2024-05-02 07:30:00,SystemResetWarning,0824.8,5.00,000.00,024.5,023.7,000.0,033.1,026.2,020.7,0000.0,0007.00,0002.56,0001.47
2024-05-02 07:31:00,SystemResetWarning,0824.7,5.00,000.00,024.5,023.7,000.0,033.1,026.2,020.6,0000.0,0007.10,0002.63,0001.49
2024-05-02 07:32:00,SystemResetWarning,0824.7,5.00,000.00,024.4,023.7,000.0,033.0,026.2,020.5,0000.0,0007.05,0002.69,0001.50
2024-05-02 07:33:00,SystemResetWarning,0824.7,4.99,000.00,024.4,023.7,000.0,033.0,026.1,020.6,0000.0,0007.31,0002.78,0001.54
2024-05-02 07:34:00,SystemResetWarning,0824.7,5.00,000.00,024.4,023.7,000.0,033.0,026.1,020.7,0000.0,0007.22,0002.79,0001.56
2024-05-02 07:35:00,SystemResetWarning,0824.7,5.01,000.00,024.4,023.6,000.0,033.0,026.1,020.6,0000.0,0007.77,0002.84,0001.57
2024-05-02 07:36:00,SystemResetWarning,0824.7,5.00,000.00,024.4,023.6,000.0,033.0,026.0,020.7,0000.0,0007.77,0002.84,0001.59
2024-05-02 07:37:00,SystemResetWarning,0824.7,5.00,000.00,024.3,023.6,000.0,033.0,026.1,020.7,0000.0,0008.48,0002.89,0001.61
2024-05-02 07:38:00,SystemResetWarning,0824.7,5.00,000.00,024.3,023.6,000.0,032.9,026.0,020.8,0000.0,0008.51,0002.89,0001.63
2024-05-02 07:39:00,SystemResetWarning,0824.7,5.00,000.00,024.3,023.6,000.0,032.9,026.0,020.9,0000.0,0009.44,0002.98,0001.65
2024-05-02 07:40:00,SystemResetWarning,0824.7,4.99,000.00,024.3,023.6,000.0,032.9,026.0,020.9,0000.0,0009.72,0003.09,0001.66
2024-05-02 07:41:00,SystemResetWarning,0824.7,5.01,000.00,024.3,023.5,000.0,032.9,026.0,020.9,0000.0,0009.73,0003.10,0001.67
2024-05-02 07:42:00,SystemResetWarning,0824.7,5.00,000.00,024.3,023.5,000.0,032.9,026.0,021.0,0000.0,0009.73,0003.05,0001.68
2024-05-02 07:43:00,SystemResetWarning,0824.8,4.99,000.00,024.3,023.5,000.0,032.9,026.0,021.1,0000.0,0009.63,0002.98,0001.67
2024-05-02 07:44:00,SystemResetWarning,0824.7,5.00,000.00,024.3,023.5,000.0,032.8,026.0,021.1,0000.0,0009.59,0002.97,0001.66
2024-05-02 07:45:00,SystemResetWarning,0824.7,5.02,000.00,024.2,023.5,000.0,032.8,025.9,021.0,0000.0,0009.86,0002.94,0001.66
2024-05-02 07:46:00,SystemResetWarning,0824.7,4.99,000.00,024.2,023.5,000.0,032.8,025.9,021.1,0000.0,0009.60,0002.97,0001.67
2024-05-02 07:47:00,SystemResetWarning,0824.7,4.99,000.00,024.2,023.5,000.0,032.8,026.0,021.1,0000.0,0009.20,0002.96,0001.67
2024-05-02 07:48:00,SystemResetWarning,0824.7,5.01,000.00,024.2,023.5,000.0,032.8,026.0,021.1,0000.0,0008.25,0002.96,0001.66
2024-05-02 07:49:00,SystemResetWarning,0824.8,5.01,000.00,024.2,023.5,000.0,032.8,026.0,021.0,0000.0,0008.24,0002.97,0001.66
2024-05-02 07:50:00,SystemResetWarning,0824.8,4.99,000.00,024.2,023.5,000.0,032.8,026.0,020.9,0000.0,0007.56,0002.93,0001.67
2024-05-02 07:51:00,SystemResetWarning,0824.9,5.00,000.00,024.2,023.5,000.0,032.8,026.0,020.9,0000.0,0006.21,0002.87,0001.67
2024-05-02 07:52:00,SystemResetWarning,0824.9,5.01,000.00,024.2,023.5,000.0,032.8,026.0,020.7,0000.0,0007.37,0002.86,0001.68
2024-05-02 07:53:00,SystemResetWarning,0824.8,4.99,000.00,024.2,023.6,000.0,032.8,026.1,020.7,0000.0,0007.32,0002.86,0001.70
2024-05-02 07:54:00,SystemResetWarning,0824.7,4.99,000.00,024.3,023.6,000.0,032.8,026.1,020.5,0000.0,0007.23,0002.83,0001.70
2024-05-02 07:55:00,SystemResetWarning,0824.7,5.01,000.00,024.3,023.6,000.0,032.8,026.1,020.4,0000.0,0007.06,0002.80,0001.71
2024-05-02 07:56:00,SystemResetWarning,0824.7,5.01,000.00,024.3,023.7,000.0,032.8,026.2,020.5,0000.0,0006.19,0002.70,0001.70
2024-05-02 07:57:00,SystemResetWarning,0824.7,4.98,000.00,024.3,023.7,000.0,032.8,026.2,020.4,0000.0,0005.82,0002.62,0001.70
2024-05-02 07:58:00,SystemResetWarning,0824.8,5.00,000.00,024.3,023.7,000.0,032.8,026.2,020.3,0000.0,0005.85,0002.62,0001.70
2024-05-02 07:59:00,SystemResetWarning,0824.7,5.02,000.00,024.4,023.8,000.0,032.8,026.3,020.2,0000.0,0006.15,0002.67,0001.70
